Regional Weather Roundup
Issued by NWS Cleveland, OH

Home | Current Version | Previous Version | Text Only | Print | Product List | Glossary Off
Versions: 1 2 3 4 5 6 7 8 9 10 11 12 13 14 15 16 17 18 19 20 21 22 23 24 25 26 27 28 29 30 31 32 33 34 35 36 37 38 39 40 41 42 43 44 45 46 47 48 49 50

000
ASUS41 KCLE 051010
RWRCLE
OHIO REGIONAL WEATHER ROUNDUP
NATIONAL WEATHER SERVICE CLEVELAND, OH
600 AM EDT TUE MAY 05 2015

NOTE: "FAIR" INDICATES FEW OR NO CLOUDS BELOW 12,000 FEET WITH NO
SIGNIFICANT WEATHER AND/OR OBSTRUCTIONS TO VISIBILITY.

OHZ001>008-015>018-024>027-034-035-043-044-051100-
   NORTHWEST OHIO

CITY           SKY/WX    TMP DP  RH WIND       PRES   REMARKS
DEFIANCE       MOCLDY    61  59  93 CALM      30.22R FOG
FINDLAY        MOCLDY    60  57  89 S5        30.21R FOG
TOLEDO EXPRESS CLOUDY    59  53  80 E5        30.22R
TOLEDO EXEC    CLOUDY    59  55  87 NE6       30.23R FOG
LIMA           CLOUDY    61  59  93 S6        30.22R FOG
$$

OHZ009>014-019>023-028>033-038-089-051100-
   NORTHEAST OHIO

CITY           SKY/WX    TMP DP  RH WIND       PRES   REMARKS
CLE-HOPKINS    LGT RAIN  60  57  89 CALM      30.25R FOG
CLE-LAKEFRONT  FOG       52  50  93 N7        30.23R VSB 1/4
CUY CO. ARPT   NOT AVBL
LORAIN-ELYRIA  CLOUDY    57  56  96 CALM      30.23R FOG
ASHTABULA      FOG       52  51  97 CALM      30.25R VSB 1/4
AKRON-CANTON   CLOUDY    59  57  93 CALM      30.24R FOG
WOOSTER        FOG       57  56  96 CALM      30.24R VSB 1/4
MANSFIELD      CLOUDY    60  58  92 SW6       30.23S
YOUNGSTOWN     MOCLDY    53  52  96 CALM      30.23R FOG
$$

OHZ042-051>053-060>062-070>072-077>081-051100-
  SOUTHWEST OHIO

CITY           SKY/WX    TMP DP  RH WIND       PRES   REMARKS
CINC-COVINGTON PTCLDY    60  56  86 CALM      30.23S
CINC-LUNKEN    FOG       57  57 100 CALM      30.24R VSB 1/4
HAMILTON       MOCLDY    60  59  96 CALM      30.24S
DAYTON         CLOUDY    62  60  93 S5        30.24R
WRIGHT-PAT AFB CLOUDY    62  62 100 SE2       30.23R
DAYTON GENERAL CLOUDY    62  60  93 SW5       30.23R
WILMINGTON     CLOUDY    60  57  89 CALM      30.24R
$$

OHZ036-037-039>041-045>050-054>059-063>069-073>076-082>088-051100-
  CENTRAL AND SOUTHEAST OHIO

CITY           SKY/WX    TMP DP  RH WIND       PRES   REMARKS
COLUMBUS       CLOUDY    62  60  93 CALM      30.23R
OSU AIRPORT    CLOUDY    61  59  93 W6        30.24R FOG
BOLTON FIELD   CLOUDY    60  60 100 SW6       30.25R FOG
RICKENBACK AFB CLOUDY    60  59  95 NE5       30.23S FOG
NEWARK         LGT RAIN  62  60  93 SE5       30.23S FOG
MARION         CLOUDY    61  58  90 SW9       30.23R FOG
LANCASTER      CLOUDY    61  59  93 CALM      30.24S FOG
ZANESVILLE     CLOUDY    60  59  96 NW5       30.25R FOG
NEW PHILLY     HVY RAIN  62  59  90 CALM      30.26R VSB 3/4
$$



USA.gov is the U.S. government's official web portal to all federal, state and local government web resources and services.